星链-31313 (STARLINK-31313 )

导读 | 星芒AI

STARLINK-31313 是 SpaceX Starlink 项目中的一颗低轨通信卫星,属于该星座的众多组网卫星之一。该卫星旨在为全球用户提供高速互联网服务,尤其关注网络覆盖不足的地区。它运行在约 550 公里的轨道高度,采用先进的推进系统和激光通信技术,以提高网络效率和稳定性。STARLINK-31313 的发射和运行进一步扩展了 Starlink 网络的覆盖范围和容量,支持更多用户接入高速互联网服务。

基本信息
目录编号:
59088
目录名称:
STARLINK-31313
国际标识:
2024-041Q
轨道中心:
EARTH
卫星名称:
星链-31313
卫星全名:
星链-31313 (STARLINK-31313 )
卫星状态:
在轨 (已飞行659 天)
发射日期:
2024-02-29 UTC
国别 :
美国 (US)
星等 :
--
轨道信息
数据来源 国际轨道数据
星历时间: 2025-12-19T11:18:28+0800
19小时前
查看轨道信息
半长轴: 6861.203km
偏心率: 0.0001015
轨道倾角: 43.002°
近地点辐角 251.413°
升交点赤经 45.489°
平近点角 108.661°
近地点: 482.369km
远地点: 483.763km
周期: 94.267分钟
每日圈数: 15.275745
详细信息
固有亮度:
5
最大亮度:
0.3
卫星平台:
Starlink v2.0 mini
覆盖范围:
全球
运营商:
太空探索技术公司
运营商所在国:
美国
制造商(研发单位):
太空探索技术公司
制造商所在国:
美国
使用方式:
暂无
卫星简介
星链(Starlink)计划是由太空探索技术公司(SpaceX)提出的一个巨型低轨卫星互联网星座项目,计划在2019年至2024年间在太空搭建由约1.2万颗卫星组成的“星链”网络,其中1584颗将部署在地球上空550千米处的近地轨道,并从2020年开始工作。该卫星仍在工作。
2D轨道图
3D轨道图
轨道高度分析图
轨道倾角分析图
轨道综合分析图
查看轨道综合分析图